[[{"header":{"parameterUnit":"m.s-1","parameterCategory":1,"la1":30.2992,"la2":30.254,"lo1":-89.0895,"lo2":-89.0443,"dy":0.0025,"dx":0.0025,"nx":19,"ny":19,"refTime":"2026-04-30T03:00:00:Z","depth":0,"parameterNumber":2,"parameterNumberName":"U-component_of_WINDS"},"data":[0,0,0,2.989,2.9894,3.0098,3.0099,3.038,3.0383,0,0,0,0,0,0,0,0,0,0,0,2.984,2.9842,2.9889,2.9895,3.0098,3.0099,3.0379,3.0383,0,0,0,0,0,0,0,0,0,0,0,2.9839,2.9842,2.9844,2.9896,3.0098,3.0099,3.0379,3.0218,0,0,0,0,0,0,0,0,0,0,3.0018,2.9981,2.9841,2.9844,2.9897,3.0098,3.0099,3.021,3.0228,3.0296,0,3.0357,0,3.0374,3.0403,3.0404,0,0,0,2.9888,2.9966,3.0011,2.9845,2.9899,3.0097,3.0004,3.022,3.0241,3.032,3.0361,3.037,3.0379,3.0404,3.0406,3.0813,3.0815,0,0,2.9877,2.9883,2.9997,3.0025,2.9992,2.9998,3.0011,3.0232,3.0278,3.0361,3.0377,3.0383,3.0406,3.0409,3.081,3.0813,0,0,0,2.9849,2.9875,2.9914,3.0014,3.0049,3.0004,3.0019,3.0268,3.028,3.038,3.0387,3.0408,3.0412,3.0808,3.0811,3.0925,0,0,0,2.9842,2.9859,2.991,2.9916,3.0045,3.016,3.005,3.0265,3.0289,3.0385,3.0408,3.0415,3.0805,3.081,3.0917,3.0978,0,0,0,2.9823,2.9857,2.9889,2.9916,3.0003,3.0157,3.0181,3.027,3.0294,3.0404,3.0415,3.0804,3.0809,3.0909,3.0966,3.1086,0,0,0,2.9806,2.999,2.9891,3.01,3.0002,3.0225,3.018,3.0347,3.0454,3.041,3.0806,3.0811,3.0907,3.0958,3.1078,3.1186,3.1232,0,0,3.0042,3.0019,3.0141,3.0059,3.0301,3.0194,3.0454,3.0548,3.0555,3.0727,3.0737,3.092,3.0965,3.1084,3.1491,3.1528,0,0,0,3.0218,3.0306,3.0369,3.047,3.0545,3.0614,3.0667,3.0702,3.0847,3.0643,3.0996,3.1023,3.1092,3.1144,3.1175,3.1234,3.0836,3.0835,3.0834,3.056,3.0556,3.0758,3.0779,3.0879,3.0931,3.1011,3.1068,3.1037,3.1121,3.1171,3.1418,3.1479,3.1502,3.1564,3.123,3.123,3.123,3.1231,3.0904,3.1028,3.0981,3.1159,3.1155,3.1306,3.1365,3.1338,3.1479,3.138,3.1441,3.1332,3.1543,3.1596,3.1239,3.1238,3.1237,3.1236,3.1235,3.1127,3.1185,3.1223,3.1368,3.1482,3.1498,3.1635,3.1627,3.1621,3.1682,3.1734,3.1732,3.1728,3.1707,3.1708,3.1709,3.171,3.1711,3.1711,3.1342,3.1381,3.1496,3.159,3.1654,3.1737,3.1792,3.1856,3.1924,3.1908,3.1908,3.1869,3.1564,3.1486,3.1724,3.1722,3.172,3.1719,3.1718,3.169,3.1609,3.1787,3.1851,3.1961,3.2074,3.2062,3.2192,3.2243,3.2311,3.226,3.2035,3.2012,3.1987,3.1923,3.226,3.226,3.226,3.226,3.1876,3.1863,3.2042,3.2144,3.2244,3.2251,3.2454,3.2499,3.2534,3.2566,3.2517,3.2431,3.2406,3.2398,3.2364,3.2304,3.273,3.273,3.2731,3.2089,3.2085,3.2257,3.2288,3.2374,3.2448,3.2638,3.2759,3.2783,3.275,3.2591,3.2571,3.2433,3.2389,3.2351,3.2299,3.2188,0,0]},{"header":{"parameterUnit":"m.s-1","parameterCategory":1,"la1":30.2992,"la2":30.254,"lo1":-89.0895,"lo2":-89.0443,"dy":0.0025,"dx":0.0025,"nx":19,"ny":19,"refTime":"2026-04-30T03:00:00:Z","depth":0,"parameterNumber":3,"parameterNumberName":"V-component_of_WINDS"},"data":[0,0,0,1.2357,1.2362,1.2612,1.2613,1.2945,1.2948,0,0,0,0,0,0,0,0,0,0,0,1.2284,1.2287,1.2357,1.2363,1.2612,1.2613,1.2944,1.2948,0,0,0,0,0,0,0,0,0,0,0,1.2283,1.2286,1.2289,1.2364,1.2612,1.2613,1.2944,1.2752,0,0,0,0,0,0,0,0,0,0,1.2508,1.2441,1.2285,1.2289,1.2365,1.2612,1.2613,1.2743,1.2764,1.2835,0,1.2893,0,1.2925,1.297,1.2971,0,0,0,1.2364,1.2423,1.2489,1.2289,1.2367,1.2611,1.25,1.2755,1.2779,1.2863,1.2897,1.291,1.2931,1.2972,1.2974,1.3365,1.3367,0,0,1.235,1.2332,1.2472,1.2504,1.2459,1.2492,1.2508,1.2769,1.2808,1.2899,1.2917,1.2936,1.2975,1.2977,1.3363,1.3365,0,0,0,1.231,1.2322,1.2381,1.2491,1.2534,1.2499,1.2517,1.2796,1.2817,1.2921,1.294,1.2977,1.2981,1.3361,1.3364,1.3433,0,0,0,1.2301,1.2299,1.2375,1.2366,1.2529,1.2667,1.2538,1.2798,1.2828,1.2938,1.2977,1.2984,1.3359,1.3363,1.3427,1.347,0,0,0,1.2268,1.2295,1.233,1.2365,1.2471,1.2663,1.2699,1.2805,1.284,1.2972,1.2985,1.3358,1.3362,1.3422,1.3461,1.3568,0,0,0,1.2229,1.2391,1.2331,1.2521,1.2468,1.2702,1.2697,1.2874,1.2994,1.2978,1.336,1.3364,1.342,1.3456,1.3562,1.3655,1.3691,0,0,1.2424,1.2414,1.2527,1.2481,1.2719,1.2665,1.2917,1.3048,1.308,1.327,1.328,1.3429,1.3461,1.3567,1.3899,1.3927,0,0,0,1.2584,1.2665,1.2732,1.2843,1.2942,1.3033,1.3126,1.3175,1.3336,1.3171,1.3496,1.3516,1.3579,1.3625,1.3649,1.3706,1.3383,1.3383,1.3383,1.2838,1.2864,1.3054,1.3111,1.322,1.3312,1.3405,1.3487,1.3487,1.3563,1.3621,1.3818,1.387,1.3889,1.3947,1.367,1.3671,1.3671,1.3671,1.3128,1.3248,1.3239,1.342,1.345,1.3605,1.3701,1.3696,1.3847,1.3777,1.3834,1.3757,1.3919,1.3972,1.3677,1.3676,1.3675,1.3675,1.3674,1.3299,1.3361,1.3413,1.3575,1.3699,1.3754,1.3898,1.3921,1.3945,1.4001,1.4065,1.4064,1.4068,1.4029,1.403,1.4031,1.4031,1.4032,1.4032,1.3456,1.3512,1.3628,1.3745,1.3819,1.3921,1.4015,1.4091,1.4182,1.4188,1.4189,1.4183,1.3928,1.3864,1.4043,1.4041,1.404,1.4039,1.4038,1.3744,1.3682,1.386,1.3934,1.4075,1.4197,1.4223,1.4375,1.4441,1.4513,1.4494,1.43,1.4294,1.4275,1.4223,1.4485,1.4485,1.4485,1.4485,1.3889,1.3886,1.4073,1.419,1.4307,1.4348,1.4555,1.463,1.47,1.4744,1.4709,1.4642,1.4621,1.4627,1.4601,1.4552,1.4892,1.4892,1.4893,1.4069,1.4078,1.4246,1.4307,1.4419,1.4516,1.4711,1.4851,1.4918,1.491,1.478,1.4763,1.4653,1.4616,1.4607,1.4565,1.4477,0,0]}]]